Regional Weather Roundup
Issued by NWS

Home | Current Version | Previous Version | Graphics & Text | Print | Product List | Glossary On
Versions: 1 2 3 4 5 6 7 8 9 10 11 12 13 14 15 16 17 18 19 20 21 22 23 24 25 26 27 28 29 30 31 32 33 34 35 36 37 38 39 40 41 42 43 44 45 46 47 48 49 50
759
ASUS44 KJAN 281010
RWRMS

MISSISSIPPI HOURLY WEATHER ROUNDUP
NATIONAL WEATHER SERVICE JACKSON MS
500 AM CDT THU AUG 28 2014

NOTE: "FAIR: INDICATES FEW OR NO CLOUDS BELOW 12,000 FEET WITH NO
SIGNIFICANT WEATHER AND/OR OBSTRUCTIONS TO VISIBILITY.

MSZ001>002-007>008-010>013-018>021-025>028-034>036-281100-
NORTHWEST MISSISSIPPI

CITY           SKY/WX    TMP DP  RH WIND       PRES   REMARKS
CLARKSDALE       N/A     68  68 100 CALM      30.01S
CLEVELAND      FAIR      69  68  99 CALM      30.00R
GREENWOOD      PTCLDY    68  65  90 NE3       30.01R
GREENVILLE     CLEAR     67  65  93 CALM      29.99S FOG
GRENADA        FAIR      64  64 100 CALM      30.02R
OLIVE BRANCH   CLEAR     70  70 100 CALM      30.03R
OXFORD         FAIR      64  63  94 CALM      30.04S
TUNICA           N/A     68  68 100 CALM      30.02S FOG
$$

MSZ003>006-009-014>017-022>024-029>033-037>039-281100-
NORTHEAST MISSISSIPPI

CITY           SKY/WX    TMP DP  RH WIND       PRES   REMARKS
BELMONT        FAIR      70  69  96 CALM      30.03S
COLUMBUS AFB   CLEAR     67  67  98 CALM      30.02R
CORINTH          N/A     70  68  94 CALM      30.02S FOG
GOLDN TRIANGLE CLEAR     66  63  88 CALM      30.02R
STARKVILLE     FAIR      64  64 100 CALM      30.01S
TUPELO         PTCLDY    69  65  86 CALM      30.02R
$$

MSZ040-058-281100-
CENTRAL MISSISSIPPI

CITY           SKY/WX    TMP DP  RH WIND       PRES   REMARKS
JACKSON INTL   CLEAR     69  66  90 CALM      30.01R
JACKSON HAWKNS CLEAR     71  67  87 CALM      30.01R
MERIDIAN KEY   PTCLDY    65  62  90 CALM      30.01R
MERIDIAN NAS   PTCLDY    65  63  93 CALM      30.01R
RAYMOND        FAIR      68  63  83 CALM      30.01R HAZE
VICKSBURG      CLEAR     67  66  97 CALM      29.99S
$$

MSZ059>079-281100-
SOUTH MISSISSIPPI

CITY           SKY/WX    TMP DP  RH WIND       PRES   REMARKS
BROOKHAVEN     FAIR      70  70 100 CALM      30.02S FOG
COLUMBIA       FAIR      70  70 100 CALM      29.98S FOG
HATTIESBURG    PTCLDY    72  70  93 CALM      30.00R
MCCOMB         PTCLDY    74  71  91 CALM      29.99S
NATCHEZ        CLEAR     73  72  94 CALM      29.99S
PINE BELT      PTCLDY    70  64  83 CALM      30.01S
$$

MSZ080>082-281100-
COASTAL MISSISSIPPI

CITY           SKY/WX    TMP DP  RH WIND       PRES   REMARKS
BILOXI         CLOUDY    77  73  87 NE6       29.98R
PASCAGOULA     MOCLDY    73  72  96 N3        29.98S
GULFPORT       MOCLDY    78  72  81 CALM      29.97S
$$



USA.gov is the U.S. government's official web portal to all federal, state and local government web resources and services.